Location: Kazanice
(53.5528°N, 19.7258°E)
Time: 15:25:01
(UTC+01:00)

ISS - Pass Details

Date: 30 January 2019
Orbit: 403 x 411 km, 51.6° (Epoch: 16 February)

Event Time Altitude Azimuth Distance (km) Brightness Sun altitude
Rises 19:02:37 0° 269° (W) 2,338 1.5 -24.2°
Reaches altitude 10° 19:04:43 10° 266° (W) 1,478 0.1 -24.5°
Enters shadow 19:06:42 32° 253° (WSW) 729 -2.0 -24.8°
